| time (UTC) | temp C | wind direction | speed KPH | gust KPH | rain 1hr cm | rain 24hr cm | rain mn cm | humidity % | barometer mb |
| 20260502162328 | 12 | 298 | 1.6 | 3.2 | 0.00 | 0.00 | 0.00 | 87 | 1017.1 |
| 20260502161825 | 11 | 350 | 0.0 | 0.0 | 0.00 | 0.00 | 0.00 | 88 | 1017.3 |
| 20260502161321 | 11 | 309 | 0.0 | 0.0 | 0.00 | 0.00 | 0.00 | 88 | 1017.2 |
| 20260502160819 | 11 | 22 | 1.6 | 1.6 | 0.00 | 0.00 | 0.00 | 88 | 1017.2 |
| 20260502160318 | 11 | 123 | 1.6 | 3.2 | 0.00 | 0.00 | 0.00 | 88 | 1017.1 |
| 20260502152247 | 11 | 285 | 1.6 | 1.6 | 0.00 | 0.00 | 0.00 | 88 | 1017.2 |
| 20260502151744 | 11 | 282 | 1.6 | 1.6 | 0.00 | 0.00 | 0.00 | 88 | 1017.2 |
| 20260502151241 | 11 | 323 | 1.6 | 1.6 | 0.00 | 0.00 | 0.00 | 88 | 1017.1 |
| 20260502150739 | 11 | 354 | 1.6 | 1.6 | 0.00 | 0.00 | 0.00 | 88 | 1017.2 |
| 20260502150236 | 11 | 305 | 0.0 | 0.0 | 0.00 | 0.00 | 0.00 | 88 | 1017.4 |
| 20260502130624 | 10 | 306 | 0.0 | 0.0 | 0.00 | 0.00 | 0.00 | 89 | 1017.0 |
| 20260502130122 | 10 | 297 | 1.6 | 1.6 | 0.00 | 0.00 | 0.00 | 89 | 1017.1 |
| 20260502123607 | 10 | 299 | 0.0 | 1.6 | 0.00 | 0.00 | 0.00 | 89 | 1017.0 |
| 20260502123104 | 10 | 316 | 0.0 | 1.6 | 0.00 | 0.00 | 0.00 | 89 | 1017.2 |
| 20260502122601 | 10 | 319 | 1.6 | 1.6 | 0.00 | 0.00 | 0.00 | 89 | 1017.1 |
| 20260502122057 | 10 | 288 | 1.6 | 3.2 | 0.00 | 0.00 | 0.00 | 89 | 1017.2 |
| 20260502121555 | 10 | 297 | 1.6 | 1.6 | 0.00 | 0.00 | 0.00 | 89 | 1017.1 |
| 20260502121053 | 10 | 308 | 0.0 | 0.0 | 0.00 | 0.00 | 0.00 | 89 | 1016.7 |
| 20260502120548 | 10 | 334 | 1.6 | 1.6 | 0.00 | 0.00 | 0.00 | 90 | 1016.9 |
| 20260502115544 | 10 | 300 | 1.6 | 1.6 | 0.00 | 0.00 | 0.00 | 90 | 1017.0 |
| 20260502115039 | 10 | 303 | 1.6 | 1.6 | 0.00 | 0.00 | 0.00 | 91 | 1016.9 |
| 20260502114536 | 10 | 284 | 1.6 | 1.6 | 0.00 | 0.00 | 0.00 | 91 | 1017.0 |
| 20260502114033 | 10 | 297 | 1.6 | 1.6 | 0.00 | 0.00 | 0.00 | 92 | 1017.0 |
| 20260502113531 | 10 | 301 | 0.0 | 0.0 | 0.00 | 0.00 | 0.00 | 92 | 1016.8 |
| 20260502113029 | 10 | 301 | 0.0 | 0.0 | 0.00 | 0.00 | 0.00 | 91 | 1017.1 |
| 20260502112526 | 10 | 300 | 1.6 | 1.6 | 0.00 | 0.00 | 0.00 | 91 | 1016.9 |
| 20260502112024 | 10 | 300 | 0.0 | 1.6 | 0.00 | 0.00 | 0.00 | 91 | 1017.3 |
| 20260502111521 | 10 | 303 | 0.0 | 0.0 | 0.00 | 0.00 | 0.00 | 91 | 1017.2 |
| 20260502111018 | 10 | 244 | 1.6 | 3.2 | 0.00 | 0.00 | 0.00 | 91 | 1016.9 |
| 20260502110515 | 10 | 300 | 0.0 | 0.0 | 0.00 | 0.00 | 0.00 | 91 | 1016.9 |
| 20260502110013 | 10 | 305 | 0.0 | 1.6 | 0.00 | 0.00 | 0.00 | 92 | 1017.0 |
| 20260502105510 | 10 | 308 | 0.0 | 0.0 | 0.00 | 0.00 | 0.00 | 91 | 1016.9 |
| 20260502105008 | 10 | 311 | 0.0 | 0.0 | 0.00 | 0.00 | 0.00 | 91 | 1017.0 |
| 20260502104505 | 10 | 297 | 0.0 | 1.6 | 0.00 | 0.00 | 0.00 | 91 | 1017.1 |
| 20260502104002 | 10 | 309 | 0.0 | 0.0 | 0.00 | 0.00 | 0.00 | 91 | 1017.2 |
| 20260502103459 | 10 | 311 | 0.0 | 0.0 | 0.00 | 0.00 | 0.00 | 91 | 1017.4 |
| 20260502102956 | 10 | 313 | 1.6 | 1.6 | 0.00 | 0.00 | 0.00 | 91 | 1017.4 |
| 20260502102454 | 10 | 316 | 0.0 | 0.0 | 0.00 | 0.00 | 0.00 | 91 | 1017.6 |
| 20260502101950 | 10 | 303 | 0.0 | 1.6 | 0.00 | 0.00 | 0.00 | 90 | 1017.1 |
| 20260502101449 | 10 | 301 | 0.0 | 0.0 | 0.00 | 0.00 | 0.00 | 90 | 1017.0 |
| 20260502100947 | 10 | 285 | 1.6 | 3.2 | 0.00 | 0.00 | 0.00 | 90 | 1016.7 |
| 20260502100445 | 10 | 29 | 3.2 | 3.2 | 0.00 | 0.00 | 0.00 | 91 | 1016.4 |
| 20260502091420 | 11 | 303 | 0.0 | 0.0 | 0.00 | 0.00 | 0.00 | 93 | 1018.1 |
| 20260502090917 | 11 | 303 | 0.0 | 1.6 | 0.00 | 0.00 | 0.00 | 93 | 1018.2 |
| 20260502090414 | 11 | 303 | 0.0 | 0.0 | 0.00 | 0.00 | 0.00 | 92 | 1018.6 |
| 20260502071308 | 12 | 96 | 3.2 | 3.2 | 0.00 | 0.00 | 0.00 | 81 | 1017.9 |
| 20260502070807 | 12 | 300 | 1.6 | 1.6 | 0.00 | 0.00 | 0.00 | 80 | 1018.1 |
| 20260502070304 | 12 | 288 | 1.6 | 1.6 | 0.00 | 0.00 | 0.00 | 80 | 1017.9 |
| 20260502065803 | 12 | 306 | 0.0 | 0.0 | 0.00 | 0.00 | 0.00 | 79 | 1017.9 |
| 20260502065300 | 12 | 288 | 0.0 | 1.6 | 0.00 | 0.00 | 0.00 | 79 | 1017.8 |
| 20260502064758 | 12 | 272 | 1.6 | 1.6 | 0.00 | 0.00 | 0.00 | 80 | 1017.7 |
| 20260502064256 | 12 | 302 | 0.0 | 1.6 | 0.00 | 0.00 | 0.00 | 81 | 1018.2 |
| 20260502063753 | 12 | 309 | 0.0 | 0.0 | 0.00 | 0.00 | 0.00 | 81 | 1018.1 |
| 20260502063251 | 12 | 324 | 0.0 | 1.6 | 0.00 | 0.00 | 0.00 | 81 | 1018.0 |
| 20260502062748 | 13 | 310 | 0.0 | 0.0 | 0.00 | 0.00 | 0.00 | 80 | 1018.0 |
| 20260502062245 | 13 | 298 | 0.0 | 1.6 | 0.00 | 0.00 | 0.00 | 80 | 1017.9 |
| 20260502061744 | 13 | 283 | 1.6 | 1.6 | 0.00 | 0.00 | 0.00 | 80 | 1017.8 |
| 20260502061242 | 13 | 314 | 0.0 | 1.6 | 0.00 | 0.00 | 0.00 | 79 | 1017.9 |
| 20260502060741 | 13 | 304 | 0.0 | 0.0 | 0.00 | 0.00 | 0.00 | 79 | 1017.8 |
| 20260502060237 | 13 | 314 | 0.0 | 0.0 | 0.00 | 0.00 | 0.00 | 79 | 1017.8 |
| 20260502055736 | 13 | 315 | 0.0 | 0.0 | 0.00 | 0.00 | 0.00 | 78 | 1017.6 |
| 20260502055233 | 13 | 280 | 0.0 | 1.6 | 0.00 | 0.00 | 0.00 | 78 | 1017.7 |
| 20260502054732 | 13 | 308 | 0.0 | 0.0 | 0.00 | 0.00 | 0.00 | 78 | 1017.7 |
| 20260502054229 | 13 | 296 | 0.0 | 0.0 | 0.00 | 0.00 | 0.00 | 78 | 1017.7 |
| 20260502053727 | 13 | 309 | 0.0 | 1.6 | 0.00 | 0.00 | 0.00 | 77 | 1017.5 |
| 20260502053224 | 14 | 314 | 0.0 | 1.6 | 0.00 | 0.00 | 0.00 | 77 | 1017.6 |
| 20260502052722 | 14 | 340 | 1.6 | 1.6 | 0.00 | 0.00 | 0.00 | 77 | 1017.4 |
| 20260502052220 | 14 | 300 | 0.0 | 0.0 | 0.00 | 0.00 | 0.00 | 77 | 1017.6 |
| 20260502051717 | 14 | 304 | 0.0 | 0.0 | 0.00 | 0.00 | 0.00 | 77 | 1017.4 |
| 20260502051216 | 14 | 303 | 0.0 | 0.0 | 0.00 | 0.00 | 0.00 | 77 | 1017.2 |
| 20260502050711 | 15 | 303 | 0.0 | 0.0 | 0.00 | 0.00 | 0.00 | 77 | 1017.1 |
| 20260502050208 | 15 | 300 | 0.0 | 0.0 | 0.00 | 0.00 | 0.00 | 77 | 1017.2 |
| 20260502045705 | 15 | 323 | 0.0 | 1.6 | 0.00 | 0.00 | 0.00 | 76 | 1017.2 |
| 20260502045202 | 15 | 298 | 0.0 | 0.0 | 0.00 | 0.00 | 0.00 | 76 | 1017.2 |
| 20260502044659 | 15 | 313 | 0.0 | 0.0 | 0.00 | 0.00 | 0.00 | 75 | 1017.2 |
| 20260502044155 | 16 | 304 | 1.6 | 1.6 | 0.00 | 0.00 | 0.00 | 74 | 1017.4 |
| 20260502043653 | 16 | 305 | 1.6 | 1.6 | 0.00 | 0.00 | 0.00 | 74 | 1017.2 |
| 20260502043150 | 16 | 287 | 1.6 | 1.6 | 0.00 | 0.00 | 0.00 | 73 | 1017.1 |
| 20260502042649 | 16 | 299 | 0.0 | 1.6 | 0.00 | 0.00 | 0.00 | 72 | 1017.2 |
| 20260502042146 | 16 | 300 | 0.0 | 0.0 | 0.00 | 0.00 | 0.00 | 73 | 1016.9 |
| 20260502041644 | 16 | 308 | 0.0 | 0.0 | 0.00 | 0.00 | 0.00 | 72 | 1017.0 |
| 20260502041141 | 16 | 322 | 0.0 | 0.0 | 0.00 | 0.00 | 0.00 | 71 | 1016.9 |
| 20260502040638 | 17 | 299 | 1.6 | 1.6 | 0.00 | 0.00 | 0.00 | 71 | 1016.8 |
| 20260502040135 | 17 | 300 | 0.0 | 1.6 | 0.00 | 0.00 | 0.00 | 71 | 1016.6 |
| 20260502035631 | 17 | 305 | 1.6 | 1.6 | 0.00 | 0.00 | 0.00 | 70 | 1016.6 |
| 20260502035128 | 17 | 61 | 1.6 | 3.2 | 0.00 | 0.00 | 0.00 | 71 | 1016.6 |
| 20260502034626 | 17 | 302 | 1.6 | 1.6 | 0.00 | 0.00 | 0.00 | 70 | 1016.3 |
| 20260502034125 | 17 | 292 | 1.6 | 1.6 | 0.00 | 0.00 | 0.00 | 69 | 1016.2 |
| 20260502033622 | 17 | 305 | 0.0 | 1.6 | 0.00 | 0.00 | 0.00 | 69 | 1016.1 |
| 20260502033120 | 18 | 299 | 1.6 | 1.6 | 0.00 | 0.00 | 0.00 | 69 | 1016.1 |
| 20260502032615 | 18 | 342 | 1.6 | 1.6 | 0.00 | 0.00 | 0.00 | 69 | 1015.9 |
| 20260502032112 | 18 | 284 | 1.6 | 1.6 | 0.00 | 0.00 | 0.00 | 68 | 1016.1 |
| 20260502031610 | 18 | 304 | 0.0 | 1.6 | 0.00 | 0.00 | 0.00 | 67 | 1015.9 |
| 20260502031107 | 18 | 303 | 1.6 | 1.6 | 0.00 | 0.00 | 0.00 | 66 | 1015.9 |
| 20260502030606 | 18 | 294 | 0.0 | 1.6 | 0.00 | 0.00 | 0.00 | 65 | 1015.8 |
| 20260502025600 | 19 | 299 | 1.6 | 1.6 | 0.00 | 0.00 | 0.00 | 64 | 1015.6 |
| 20260502025058 | 19 | 303 | 3.2 | 3.2 | 0.00 | 0.00 | 0.00 | 64 | 1015.5 |
| 20260502024556 | 20 | 302 | 1.6 | 1.6 | 0.00 | 0.00 | 0.00 | 64 | 1015.5 |
| 20260502024054 | 20 | 302 | 1.6 | 1.6 | 0.00 | 0.00 | 0.00 | 63 | 1015.5 |
| 20260502023551 | 20 | 306 | 1.6 | 3.2 | 0.00 | 0.00 | 0.00 | 62 | 1015.4 |
| 20260502023048 | 20 | 186 | 3.2 | 3.2 | 0.00 | 0.00 | 0.00 | 61 | 1015.4 |
| 20260502022545 | 20 | 306 | 0.0 | 1.6 | 0.00 | 0.00 | 0.00 | 61 | 1015.3 |
| 20260502022043 | 20 | 308 | 0.0 | 1.6 | 0.00 | 0.00 | 0.00 | 60 | 1015.4 |
| 20260502021540 | 20 | 296 | 1.6 | 1.6 | 0.00 | 0.00 | 0.00 | 60 | 1015.3 |
| 20260502021036 | 21 | 312 | 0.0 | 1.6 | 0.00 | 0.00 | 0.00 | 60 | 1015.5 |
| 20260502020534 | 21 | 293 | 1.6 | 3.2 | 0.00 | 0.00 | 0.00 | 60 | 1015.3 |
| 20260502020031 | 21 | 311 | 0.0 | 0.0 | 0.00 | 0.00 | 0.00 | 60 | 1015.1 |
| 20260502015529 | 21 | 312 | 0.0 | 1.6 | 0.00 | 0.00 | 0.00 | 60 | 1015.1 |
| 20260502015025 | 21 | 305 | 0.0 | 1.6 | 0.00 | 0.00 | 0.00 | 61 | 1015.1 |
| 20260502014522 | 21 | 293 | 1.6 | 1.6 | 0.00 | 0.00 | 0.00 | 60 | 1015.2 |
| 20260502014019 | 22 | 300 | 1.6 | 1.6 | 0.00 | 0.00 | 0.00 | 59 | 1015.3 |
| 20260502013514 | 22 | 291 | 0.0 | 1.6 | 0.00 | 0.00 | 0.00 | 58 | 1015.0 |
| 20260502013011 | 22 | 299 | 1.6 | 1.6 | 0.00 | 0.00 | 0.00 | 58 | 1015.0 |
| 20260502012508 | 22 | 300 | 3.2 | 3.2 | 0.00 | 0.00 | 0.00 | 58 | 1015.0 |
| 20260502012006 | 22 | 283 | 1.6 | 1.6 | 0.00 | 0.00 | 0.00 | 56 | 1015.1 |
| 20260502011502 | 23 | 324 | 0.0 | 0.0 | 0.00 | 0.00 | 0.00 | 54 | 1015.2 |
| 20260502010959 | 22 | 305 | 0.0 | 0.0 | 0.00 | 0.00 | 0.00 | 55 | 1015.0 |
| 20260502010456 | 22 | 302 | 1.6 | 3.2 | 0.00 | 0.00 | 0.00 | 51 | 1015.0 |
| 20260502005952 | 22 | 309 | 0.0 | 0.0 | 0.00 | 0.00 | 0.00 | 51 | 1015.0 |
| 20260502005450 | 22 | 299 | 0.0 | 0.0 | 0.00 | 0.00 | 0.00 | 50 | 1015.0 |
| 20260502004948 | 22 | 304 | 1.6 | 1.6 | 0.00 | 0.00 | 0.00 | 52 | 1014.9 |
| 20260502004443 | 22 | 304 | 1.6 | 1.6 | 0.00 | 0.00 | 0.00 | 51 | 1014.9 |
| 20260502003941 | 22 | 314 | 1.6 | 1.6 | 0.00 | 0.00 | 0.00 | 50 | 1015.0 |
| 20260502003438 | 22 | 304 | 1.6 | 1.6 | 0.00 | 0.00 | 0.00 | 53 | 1015.0 |
| 20260502002934 | 22 | 303 | 0.0 | 0.0 | 0.00 | 0.00 | 0.00 | 52 | 1014.9 |
| 20260502002431 | 23 | 309 | 0.0 | 0.0 | 0.00 | 0.00 | 0.00 | 53 | 1015.2 |
| 20260502001929 | 22 | 318 | 1.6 | 1.6 | 0.00 | 0.00 | 0.00 | 55 | 1015.0 |
| 20260502001426 | 22 | 303 | 0.0 | 1.6 | 0.00 | 0.00 | 0.00 | 52 | 1015.1 |
| 20260502000924 | 22 | 303 | 1.6 | 1.6 | 0.00 | 0.00 | 0.00 | 51 | 1015.0 |
| 20260502000424 | 22 | 306 | 0.0 | 0.0 | 0.00 | 0.00 | 0.00 | 52 | 1015.1 |
| 20260501235918 | 22 | 309 | 0.0 | 1.6 | 0.00 | 0.00 | 0.00 | 51 | 1015.1 |
| 20260501235414 | 22 | 90 | 1.6 | 1.6 | 0.00 | 0.00 | 0.00 | 53 | 1015.0 |
| 20260501234909 | 22 | 314 | 3.2 | 3.2 | 0.00 | 0.00 | 0.00 | 53 | 1015.1 |
| 20260501234406 | 22 | 354 | 0.0 | 1.6 | 0.00 | 0.00 | 0.00 | 52 | 1014.9 |
| 20260501233904 | 22 | 301 | 3.2 | 3.2 | 0.00 | 0.00 | 0.00 | 54 | 1015.1 |
| 20260501233402 | 22 | 310 | 0.0 | 0.0 | 0.00 | 0.00 | 0.00 | 53 | 1014.8 |
| 20260501232857 | 22 | 321 | 0.0 | 0.0 | 0.00 | 0.00 | 0.00 | 53 | 1015.2 |
| 20260501232355 | 22 | 273 | 0.0 | 1.6 | 0.00 | 0.00 | 0.00 | 55 | 1015.2 |
| 20260501231852 | 22 | 303 | 1.6 | 1.6 | 0.00 | 0.00 | 0.00 | 54 | 1015.2 |
| 20260501231350 | 22 | 294 | 0.0 | 1.6 | 0.00 | 0.00 | 0.00 | 53 | 1015.0 |
| 20260501230848 | 22 | 315 | 0.0 | 0.0 | 0.00 | 0.00 | 0.00 | 54 | 1015.4 |
| 20260501230347 | 22 | 294 | 0.0 | 0.0 | 0.00 | 0.00 | 0.00 | 55 | 1015.5 |
| 20260501225843 | 22 | 295 | 0.0 | 1.6 | 0.00 | 0.00 | 0.00 | 56 | 1015.6 |
| 20260501225341 | 22 | 271 | 1.6 | 1.6 | 0.00 | 0.00 | 0.00 | 55 | 1015.5 |
| 20260501224837 | 22 | 301 | 0.0 | 1.6 | 0.00 | 0.00 | 0.00 | 57 | 1015.5 |
| 20260501224335 | 22 | 313 | 3.2 | 3.2 | 0.00 | 0.00 | 0.00 | 56 | 1015.8 |
| 20260501223831 | 22 | 299 | 0.0 | 0.0 | 0.00 | 0.00 | 0.00 | 56 | 1015.8 |
| 20260501223327 | 22 | 304 | 0.0 | 0.0 | 0.00 | 0.00 | 0.00 | 54 | 1015.7 |
| 20260501222823 | 21 | 310 | 0.0 | 0.0 | 0.00 | 0.00 | 0.00 | 56 | 1015.6 |
| 20260501222320 | 21 | 298 | 3.2 | 3.2 | 0.00 | 0.00 | 0.00 | 55 | 1015.9 |
| 20260501221817 | 22 | 309 | 0.0 | 1.6 | 0.00 | 0.00 | 0.00 | 56 | 1016.1 |
| 20260501221314 | 21 | 305 | 0.0 | 1.6 | 0.00 | 0.00 | 0.00 | 56 | 1015.8 |
| 20260501220812 | 21 | 343 | 1.6 | 3.2 | 0.00 | 0.00 | 0.00 | 55 | 1016.1 |
| 20260501220309 | 21 | 281 | 0.0 | 1.6 | 0.00 | 0.00 | 0.00 | 55 | 1016.0 |
| 20260501215806 | 21 | 134 | 3.2 | 3.2 | 0.00 | 0.00 | 0.00 | 56 | 1016.1 |
| 20260501215305 | 21 | 308 | 0.0 | 0.0 | 0.00 | 0.00 | 0.00 | 57 | 1015.9 |
| 20260501214757 | 21 | 23 | 3.2 | 3.2 | 0.00 | 0.00 | 0.00 | 56 | 1016.2 |
| 20260501214253 | 21 | 95 | 0.0 | 1.6 | 0.00 | 0.00 | 0.00 | 56 | 1016.4 |
| 20260501213749 | 21 | 330 | 0.0 | 1.6 | 0.00 | 0.00 | 0.00 | 58 | 1016.5 |
| 20260501213246 | 21 | 307 | 0.0 | 0.0 | 0.00 | 0.00 | 0.00 | 57 | 1016.5 |
| 20260501212742 | 21 | 272 | 1.6 | 1.6 | 0.00 | 0.00 | 0.00 | 56 | 1016.6 |
| 20260501212238 | 21 | 236 | 3.2 | 3.2 | 0.00 | 0.00 | 0.00 | 57 | 1016.7 |
| 20260501211736 | 22 | 305 | 1.6 | 3.2 | 0.00 | 0.00 | 0.00 | 59 | 1016.8 |
| 20260501211232 | 21 | 317 | 0.0 | 0.0 | 0.00 | 0.00 | 0.00 | 57 | 1016.7 |
| 20260501210730 | 21 | 307 | 1.6 | 1.6 | 0.00 | 0.00 | 0.00 | 58 | 1016.7 |
| 20260501210226 | 21 | 302 | 0.0 | 0.0 | 0.00 | 0.00 | 0.00 | 60 | 1016.5 |
| 20260501205723 | 21 | 327 | 1.6 | 1.6 | 0.00 | 0.00 | 0.00 | 58 | 1016.8 |
| 20260501205220 | 21 | 279 | 1.6 | 1.6 | 0.00 | 0.00 | 0.00 | 58 | 1016.9 |
| 20260501204717 | 20 | 307 | 0.0 | 1.6 | 0.00 | 0.00 | 0.00 | 61 | 1017.0 |
| 20260501204213 | 20 | 312 | 0.0 | 0.0 | 0.00 | 0.00 | 0.00 | 61 | 1017.0 |
| 20260501203709 | 20 | 312 | 3.2 | 4.8 | 0.00 | 0.00 | 0.00 | 60 | 1016.8 |
| 20260501203207 | 20 | 297 | 1.6 | 3.2 | 0.00 | 0.00 | 0.00 | 61 | 1017.1 |
| 20260501202704 | 20 | 0 | 1.6 | 3.2 | 0.00 | 0.00 | 0.00 | 58 | 1017.1 |
| 20260501202201 | 20 | 329 | 1.6 | 1.6 | 0.00 | 0.00 | 0.00 | 59 | 1017.3 |
| 20260501201657 | 20 | 330 | 1.6 | 1.6 | 0.00 | 0.00 | 0.00 | 57 | 1017.2 |
| 20260501201154 | 21 | 286 | 1.6 | 1.6 | 0.00 | 0.00 | 0.00 | 59 | 1017.2 |
| 20260501200651 | 20 | 305 | 0.0 | 0.0 | 0.00 | 0.00 | 0.00 | 60 | 1017.1 |
| 20260501200149 | 20 | 295 | 4.8 | 4.8 | 0.00 | 0.00 | 0.00 | 59 | 1017.4 |
| 20260501195646 | 19 | 319 | 3.2 | 3.2 | 0.00 | 0.00 | 0.00 | 62 | 1017.2 |
| 20260501195141 | 20 | 217 | 4.8 | 4.8 | 0.00 | 0.00 | 0.00 | 60 | 1017.2 |
| 20260501194637 | 20 | 357 | 1.6 | 1.6 | 0.00 | 0.00 | 0.00 | 61 | 1017.4 |
| 20260501194132 | 21 | 300 | 0.0 | 0.0 | 0.00 | 0.00 | 0.00 | 56 | 1017.4 |
| 20260501193631 | 20 | 195 | 4.8 | 4.8 | 0.00 | 0.00 | 0.00 | 61 | 1017.4 |
| 20260501193129 | 20 | 322 | 0.0 | 0.0 | 0.00 | 0.00 | 0.00 | 62 | 1017.4 |
| 20260501192625 | 20 | 298 | 1.6 | 1.6 | 0.00 | 0.00 | 0.00 | 60 | 1017.4 |
| 20260501192123 | 20 | 297 | 0.0 | 0.0 | 0.00 | 0.00 | 0.00 | 60 | 1017.5 |
| 20260501191620 | 20 | 305 | 1.6 | 1.6 | 0.00 | 0.00 | 0.00 | 59 | 1017.4 |
| 20260501191117 | 20 | 312 | 0.0 | 1.6 | 0.00 | 0.00 | 0.00 | 64 | 1017.5 |
| 20260501190613 | 19 | 305 | 1.6 | 3.2 | 0.00 | 0.00 | 0.00 | 64 | 1017.5 |
| 20260501190109 | 18 | 70 | 3.2 | 3.2 | 0.00 | 0.00 | 0.00 | 63 | 1017.6 |
| 20260501185605 | 18 | 244 | 1.6 | 1.6 | 0.00 | 0.00 | 0.00 | 63 | 1017.8 |
| 20260501185101 | 18 | 306 | 1.6 | 1.6 | 0.00 | 0.00 | 0.00 | 64 | 1017.9 |
| 20260501184557 | 20 | 302 | 0.0 | 1.6 | 0.00 | 0.00 | 0.00 | 62 | 1017.7 |
| 20260501184052 | 20 | 296 | 8.0 | 9.7 | 0.00 | 0.00 | 0.00 | 60 | 1017.9 |
| 20260501183549 | 19 | 293 | 0.0 | 1.6 | 0.00 | 0.00 | 0.00 | 64 | 1017.7 |
| 20260501183045 | 19 | 300 | 4.8 | 4.8 | 0.00 | 0.00 | 0.00 | 66 | 1017.8 |
| 20260501182542 | 19 | 281 | 0.0 | 1.6 | 0.00 | 0.00 | 0.00 | 66 | 1017.7 |
| 20260501182039 | 18 | 296 | 0.0 | 1.6 | 0.00 | 0.00 | 0.00 | 68 | 1017.8 |
| 20260501181536 | 18 | 127 | 4.8 | 4.8 | 0.00 | 0.00 | 0.00 | 67 | 1017.8 |
| 20260501181033 | 18 | 262 | 0.0 | 1.6 | 0.00 | 0.00 | 0.00 | 65 | 1017.7 |
| 20260501180531 | 18 | 1 | 0.0 | 1.6 | 0.00 | 0.00 | 0.00 | 67 | 1017.9 |
| 20260501180027 | 17 | 251 | 1.6 | 3.2 | 0.00 | 0.00 | 0.00 | 67 | 1017.9 |
| 20260501175524 | 17 | 307 | 0.0 | 0.0 | 0.00 | 0.00 | 0.00 | 69 | 1018.2 |
| 20260501175020 | 17 | 270 | 1.6 | 1.6 | 0.00 | 0.00 | 0.00 | 70 | 1018.0 |
| 20260501174518 | 17 | 265 | 3.2 | 3.2 | 0.00 | 0.00 | 0.00 | 67 | 1017.9 |
| 20260501174015 | 17 | 288 | 4.8 | 4.8 | 0.00 | 0.00 | 0.00 | 70 | 1018.0 |
| 20260501173512 | 16 | 304 | 6.4 | 8.0 | 0.00 | 0.00 | 0.00 | 70 | 1017.9 |
| 20260501173009 | 17 | 304 | 3.2 | 3.2 | 0.00 | 0.00 | 0.00 | 69 | 1017.9 |
| 20260501172504 | 17 | 268 | 0.0 | 1.6 | 0.00 | 0.00 | 0.00 | 70 | 1018.0 |
| 20260501172000 | 16 | 218 | 3.2 | 3.2 | 0.00 | 0.00 | 0.00 | 69 | 1018.0 |
| 20260501171456 | 16 | 107 | 3.2 | 3.2 | 0.00 | 0.00 | 0.00 | 71 | 1018.0 |
| 20260501170953 | 16 | 60 | 0.0 | 1.6 | 0.00 | 0.00 | 0.00 | 72 | 1018.0 |
| 20260501170450 | 16 | 310 | 0.0 | 0.0 | 0.00 | 0.00 | 0.00 | 73 | 1018.1 |
| 20260501165947 | 16 | 203 | 1.6 | 3.2 | 0.00 | 0.00 | 0.00 | 73 | 1018.1 |
| 20260501165445 | 16 | 18 | 1.6 | 3.2 | 0.00 | 0.00 | 0.00 | 75 | 1018.1 |
| 20260501164942 | 16 | 342 | 1.6 | 1.6 | 0.00 | 0.00 | 0.00 | 73 | 1018.3 |
| 20260501164440 | 16 | 301 | 1.6 | 1.6 | 0.00 | 0.00 | 0.00 | 75 | 1018.0 |
| 20260501163937 | 16 | 287 | 1.6 | 1.6 | 0.00 | 0.00 | 0.00 | 73 | 1018.2 |
| 20260501163432 | 15 | 302 | 0.0 | 0.0 | 0.00 | 0.00 | 0.00 | 77 | 1018.2 |
| 20260501162929 | 15 | 273 | 0.0 | 1.6 | 0.00 | 0.00 | 0.00 | 77 | 1018.2 |